Language: 


Des rapports , des résumés tant et plus, au choix de chacun....


Données statistiques de la station
Quotidien Rapport Juillet 30, 2017 Unités:  Anglais    Métrique   les deux
« Précédent Jour
Suivant Jour »
Quotidien Hebdomadaire Mensuel Annuel Actuel
  Haut: Bas: Moyen:
Température: 74.8 °F 58.1 °F 68.4 °F
Pt de rosée: 66.2 °F 46.4 °F 57.9 °F
Humidité: 97 % 38 % 71 %
Vitesse du vent: 21 mph 0 mph 7.7 mph
Rafales: 171.9 mph - -
Vent:- - WSW
Pression: 29.9 in 29.6 in -
Précipitation: 0.01 in    
Historical Graphs
 
 
Données statistiques pour Juillet 30, 2017
Heure Température Point de rosée Pression Vent Vitesse du vent Refales Humidité Pluie (taux horaire)
00:00 66.2 °F 64.4 °F 29.7 in Calm     95 % 0 in
00:05 66.2 °F 64.4 °F 29.7 in Calm     95 % 0 in
00:10 66.2 °F 64.4 °F 29.7 in Calm     95 % 0 in
00:15 66.2 °F 64.4 °F 29.7 in Calm     95 % 0 in
00:20 66 °F 64.4 °F 29.7 in Calm     95 % 0 in
00:25 66 °F 64.4 °F 29.7 in Calm     95 % 0 in
00:30 66 °F 64.4 °F 29.7 in Calm     95 % 0 in
00:35 66 °F 64.4 °F 29.7 in Calm     95 % 0 in
00:40 65.8 °F 64.4 °F 29.7 in Calm     95 % 0 in
00:45 65.7 °F 64.4 °F 29.7 in Calm     95 % 0 in
00:50 65.5 °F 64.4 °F 29.7 in Calm     95 % 0 in
00:55 65.5 °F 64.4 °F 29.7 in Calm     95 % 0 in
01:01 65.3 °F 64.4 °F 29.7 in Calm     95 % 0 in
01:02 65.1 °F 64.4 °F 29.7 in Calm     95 % 0 in
01:07 64.9 °F 64.4 °F 29.7 in Calm     95 % 0 in
01:12 64.8 °F 64.4 °F 29.7 in Calm     95 % 0 in
01:14 64.6 °F 62.6 °F 29.7 in Calm     95 % 0 in
01:19 64.4 °F 62.6 °F 29.7 in Calm     95 % 0 in
01:24 64 °F 62.6 °F 29.7 in Calm     95 % 0 in
01:29 63.9 °F 62.6 °F 29.7 in Calm     95 % 0 in
01:34 63.9 °F 62.6 °F 29.7 in Calm     96 % 0 in
01:39 63.9 °F 62.6 °F 29.7 in Calm     96 % 0 in
01:44 63.7 °F 62.6 °F 29.7 in Calm     96 % 0 in
01:49 63.5 °F 62.6 °F 29.7 in Calm     96 % 0 in
01:54 63.5 °F 62.6 °F 29.7 in Calm     96 % 0 in
01:59 63.5 °F 62.6 °F 29.7 in Calm     96 % 0 in
02:04 63.3 °F 62.6 °F 29.7 in Calm     96 % 0 in
02:09 63.1 °F 62.6 °F 29.7 in Calm     96 % 0 in
02:14 63 °F 62.6 °F 29.7 in Calm     96 % 0 in
02:19 62.8 °F 62.6 °F 29.7 in Calm     96 % 0 in
02:24 62.8 °F 62.6 °F 29.7 in Calm     96 % 0 in
02:29 63 °F 62.6 °F 29.7 in SSW 4.3 mph 4.3 mph 96 % 0 in
02:35 63.5 °F 62.6 °F 29.7 in SSW 2 mph 4.3 mph 97 % 0 in
02:40 63.9 °F 62.6 °F 29.7 in Calm   6.3 mph 97 % 0 in
02:45 64 °F 62.6 °F 29.6 in Calm   6.3 mph 97 % 0 in
02:50 64 °F 62.6 °F 29.6 in Calm   3.6 mph 96 % 0 in
02:55 63.9 °F 62.6 °F 29.6 in Calm   2.2 mph 96 % 0 in
03:00 64 °F 62.6 °F 29.7 in SSW 3.8 mph 3.8 mph 96 % 0 in
03:05 64.2 °F 64.4 °F 29.7 in SW 3.6 mph 4.9 mph 96 % 0 in
03:10 64.4 °F 64.4 °F 29.7 in Calm   5.4 mph 96 % 0 in
03:15 64.8 °F 64.4 °F 29.7 in SSW 3.6 mph 5.4 mph 96 % 0 in
03:20 65.1 °F 64.4 °F 29.7 in Calm   6.3 mph 95 % 0 in
03:25 65.3 °F 64.4 °F 29.7 in South 4.3 mph 6.3 mph 95 % 0 in
03:30 65.7 °F 64.4 °F 29.7 in SW 2.9 mph 6.5 mph 94 % 0 in
03:35 65.8 °F 64.4 °F 29.7 in SSW 4.3 mph 8.5 mph 94 % 0 in
03:40 65.8 °F 64.4 °F 29.7 in SSW 3.8 mph 8.5 mph 93 % 0 in
03:45 66 °F 64.4 °F 29.7 in SSW 4.3 mph 6.3 mph 92 % 0 in
03:50 66 °F 64.4 °F 29.7 in SSW 6.3 mph 7.8 mph 92 % 0 in
03:55 66.2 °F 64.4 °F 29.7 in South 5.4 mph 7.8 mph 91 % 0 in
04:01 66.4 °F 62.6 °F 29.7 in SSW 8.1 mph 8.1 mph 90 % 0 in
04:06 66.6 °F 64.4 °F 29.7 in SW 6.3 mph 8.1 mph 90 % 0 in
04:11 66.7 °F 64.4 °F 29.7 in SW 5.8 mph 8.7 mph 89 % 0 in
04:16 66.7 °F 62.6 °F 29.7 in SSW 6.5 mph 8.7 mph 88 % 0 in
04:21 66.7 °F 62.6 °F 29.7 in SW 2 mph 6.5 mph 88 % 0 in
04:26 66.6 °F 62.6 °F 29.7 in SSW 5.8 mph 8.7 mph 87 % 0 in
04:31 66.6 °F 62.6 °F 29.7 in WSW 3.6 mph 8.7 mph 87 % 0 in
04:36 66.7 °F 62.6 °F 29.7 in WSW 6.5 mph 8.9 mph 86 % 0 in
04:41 66.6 °F 62.6 °F 29.7 in West 4.7 mph 8.9 mph 86 % 0 in
04:46 66.4 °F 62.6 °F 29.7 in WSW 5.8 mph 7.8 mph 85 % 0 in
04:51 66.4 °F 62.6 °F 29.7 in SSW 5.4 mph 8.1 mph 85 % 0 in
04:56 66.4 °F 62.6 °F 29.7 in SSW 6 mph 10.5 mph 85 % 0 in
05:01 66.4 °F 62.6 °F 29.7 in SW 7.4 mph 10.7 mph 85 % 0 in
05:06 66.4 °F 60.8 °F 29.7 in SW 6 mph 10.7 mph 84 % 0 in
05:11 66.4 °F 60.8 °F 29.7 in SW 7.8 mph 13.2 mph 83 % 0 in
05:17 66.4 °F 60.8 °F 29.7 in SW 4 mph 13.2 mph 83 % 0 in
05:22 66.2 °F 60.8 °F 29.7 in WSW 7.4 mph 10.5 mph 82 % 0 in
05:27 66.2 °F 60.8 °F 29.6 in SW 5.4 mph 10.3 mph 82 % 0 in
05:32 66.4 °F 60.8 °F 29.6 in SSW 3.8 mph 10.3 mph 82 % 0 in
05:37 66.4 °F 60.8 °F 29.6 in WSW 4 mph 8.1 mph 82 % 0 in
05:42 66.4 °F 60.8 °F 29.6 in South 2.9 mph 7.8 mph 82 % 0 in
05:47 66.6 °F 60.8 °F 29.6 in SW 7.6 mph 10.5 mph 83 % 0 in
05:52 66.6 °F 60.8 °F 29.6 in SSW 4.3 mph 10.5 mph 83 % 0 in
05:57 66.7 °F 60.8 °F 29.6 in South 2.9 mph 6 mph 83 % 0 in
06:02 66.7 °F 62.6 °F 29.6 in SSW 4.9 mph 7.2 mph 84 % 0 in
06:07 66.7 °F 62.6 °F 29.6 in WSW 4.3 mph 7.8 mph 84 % 0 in
06:12 66.9 °F 62.6 °F 29.6 in SSW 10.5 mph 10.5 mph 84 % 0 in
06:17 66.9 °F 62.6 °F 29.6 in South 10.7 mph 11.2 mph 84 % 0 in
06:22 67.3 °F 62.6 °F 29.6 in SSW 2.7 mph 11.2 mph 84 % 0 in
06:27 67.3 °F 62.6 °F 29.6 in SW 8.7 mph 10.3 mph 83 % 0 in
06:32 67.5 °F 62.6 °F 29.6 in South 4.7 mph 8.7 mph 83 % 0 in
06:37 67.5 °F 62.6 °F 29.6 in SSW 3.4 mph 8.7 mph 83 % 0 in
06:42 67.5 °F 62.6 °F 29.6 in SSW 4.9 mph 9.6 mph 83 % 0 in
06:47 67.5 °F 62.6 °F 29.6 in West 4 mph 9.6 mph 83 % 0 in
06:52 67.6 °F 62.6 °F 29.6 in SW 7.2 mph 11 mph 83 % 0 in
06:57 67.6 °F 62.6 °F 29.6 in West 6.3 mph 11 mph 83 % 0 in
07:02 67.6 °F 62.6 °F 29.6 in SSW 5.8 mph 11 mph 83 % 0 in
07:07 67.8 °F 62.6 °F 29.6 in West 3.8 mph 11 mph 82 % 0 in
07:12 68 °F 62.6 °F 29.6 in SSW 4 mph 10.1 mph 82 % 0 in
07:17 68.2 °F 62.6 °F 29.6 in South 7.6 mph 9.8 mph 82 % 0 in
07:22 68.2 °F 62.6 °F 29.6 in SW 6.5 mph 11 mph 82 % 0 in
07:27 68.2 °F 62.6 °F 29.6 in SW 5.8 mph 13 mph 82 % 0 in
07:32 68.4 °F 62.6 °F 29.6 in SW 5.4 mph 13 mph 82 % 0 in
07:37 68.5 °F 62.6 °F 29.6 in SSW 7.8 mph 12.8 mph 82 % 0 in
07:42 68.9 °F 64.4 °F 29.6 in SW 6 mph 12.1 mph 82 % 0 in
07:47 69.8 °F 64.4 °F 29.6 in SSW 4.9 mph 12.1 mph 81 % 0 in
07:52 70 °F 64.4 °F 29.6 in SSW 4.9 mph 12.1 mph 81 % 0 in
07:58 70.2 °F 64.4 °F 29.6 in WSW 13.2 mph 13.2 mph 80 % 0 in
08:03 70.2 °F 64.4 °F 29.6 in WSW 12.1 mph 13.2 mph 79 % 0 in
08:08 70 °F 62.6 °F 29.6 in SSW 9.8 mph 14.8 mph 78 % 0 in
08:13 70 °F 62.6 °F 29.6 in SW 9.6 mph 14.8 mph 78 % 0 in
08:18 70.3 °F 62.6 °F 29.6 in West 7.4 mph 12.3 mph 77 % 0 in
08:23 70.5 °F 62.6 °F 29.6 in SSW 6 mph 12.5 mph 77 % 0 in
08:28 70.5 °F 62.6 °F 29.6 in WSW 16.6 mph 16.8 mph 75 % 0 in
08:33 70.5 °F 62.6 °F 29.6 in SSW 8.7 mph 16.8 mph 74 % 0 in
08:38 70.5 °F 60.8 °F 29.6 in SW 7.4 mph 17.7 mph 72 % 0 in
08:43 70.3 °F 60.8 °F 29.6 in WSW 13.9 mph 17.7 mph 72 % 0 in
08:48 70.7 °F 62.6 °F 29.6 in SSW 5.8 mph 14.8 mph 72 % 0 in
08:53 70.7 °F 60.8 °F 29.6 in WSW 11 mph 17.9 mph 70 % 0 in
08:58 70.9 °F 60.8 °F 29.6 in SW 5.6 mph 17.9 mph 70 % 0 in
09:03 70.5 °F 59 °F 29.6 in WSW 10.1 mph 15.7 mph 69 % 0 in
09:08 70.2 °F 59 °F 29.6 in West 12.5 mph 15.4 mph 69 % 0 in
09:13 70.2 °F 59 °F 29.7 in WSW 15.4 mph 19 mph 69 % 0 in
09:18 70 °F 59 °F 29.7 in WSW 10.3 mph 22.1 mph 69 % 0 in
09:23 70.5 °F 59 °F 29.7 in SW 10.3 mph 22.1 mph 69 % 0 in
09:28 70.7 °F 60.8 °F 29.7 in SW 10.1 mph 17.2 mph 70 % 0 in
09:33 70.5 °F 59 °F 29.7 in SW 18.1 mph 18.1 mph 69 % 0 in
09:38 70.5 °F 59 °F 29.7 in WSW 17.9 mph 19.5 mph 69 % 0 in
09:43 68.9 °F 62.6 °F 29.7 in WSW 14.3 mph 25.5 mph 77 % 0 in
09:49 67.8 °F 62.6 °F 29.7 in WSW 12.3 mph 25.5 mph 81 % 0 in
09:54 67.5 °F 62.6 °F 29.7 in West 13 mph 17.2 mph 83 % 0 in
09:59 67.3 °F 62.6 °F 29.7 in WSW 12.5 mph 17.2 mph 84 % 0 in
10:04 67.3 °F 62.6 °F 29.7 in WSW 7.8 mph 16.6 mph 86 % 0 in
10:09 67.3 °F 62.6 °F 29.7 in WSW 13 mph 16.3 mph 86 % 0 in
10:14 67.6 °F 62.6 °F 29.7 in WSW 7.6 mph 15.4 mph 85 % 0 in
10:19 68.4 °F 64.4 °F 29.7 in WSW 10.5 mph 14.8 mph 84 % 0 in
10:24 67.8 °F 62.6 °F 29.7 in SW 8.5 mph 22.6 mph 84 % 0 in
10:29 68 °F 64.4 °F 29.7 in WSW 13.9 mph 22.6 mph 85 % 0 in
10:34 68.7 °F 62.6 °F 29.7 in SW 10.5 mph 17.4 mph 83 % 0 in
10:36 68.9 °F 62.6 °F 29.7 in WSW 14.8 mph 24.6 mph 81 % 0 in
10:41 69.3 °F 62.6 °F 29.7 in West 12.8 mph 24.6 mph 80 % 0 in
10:46 69.6 °F 62.6 °F 29.7 in WSW 20.8 mph 22.8 mph 78 % 0 in
10:51 69.6 °F 62.6 °F 29.7 in WSW 19.9 mph 24.4 mph 77 % 0 in
10:56 70.2 °F 62.6 °F 29.7 in WSW 19.9 mph 24.4 mph 76 % 0 in
11:01 70.5 °F 62.6 °F 29.7 in West 20.1 mph 22.4 mph 76 % 0 in
11:06 70.9 °F 62.6 °F 29.7 in WSW 17 mph 20.1 mph 75 % 0 in
11:11 70.2 °F 62.6 °F 29.7 in WSW 10.5 mph 18.8 mph 75 % 0 in
11:16 70 °F 60.8 °F 29.7 in WSW 13.2 mph 18.8 mph 74 % 0 in
11:21 70.5 °F 62.6 °F 29.7 in WSW 8.7 mph 19.7 mph 74 % 0 in
11:26 71.1 °F 60.8 °F 29.7 in WSW 17.2 mph 23.3 mph 71 % 0 in
11:31 71.4 °F 60.8 °F 29.7 in WSW 18.6 mph 23.3 mph 70 % 0 in
11:36 71.4 °F 62.6 °F 29.7 in WSW 12.5 mph 22.4 mph 72 % 0 in
11:41 71.1 °F 60.8 °F 29.7 in SW 13.6 mph 19.5 mph 71 % 0 in
11:46 72.1 °F 62.6 °F 29.7 in West 15.2 mph 18.1 mph 71 % 0 in
11:51 72 °F 62.6 °F 29.7 in West 10.1 mph 19.7 mph 70 % 0 in
11:56 72.1 °F 62.6 °F 29.7 in West 19.7 mph 19.7 mph 71 % 0 in
12:01 72 °F 62.6 °F 29.7 in West 16.3 mph 22.4 mph 72 % 0 in
12:06 69.1 °F 62.6 °F 29.7 in WSW 12.3 mph 25.5 mph 78 % 0.01 in
12:11 68.5 °F 62.6 °F 29.7 in WSW 11 mph 25.5 mph 83 % 0.01 in
12:17 69.6 °F 66.2 °F 29.7 in WSW 14.1 mph 19.2 mph 86 % 0.01 in
12:22 69.8 °F 64.4 °F 29.7 in WSW 8.5 mph 15.2 mph 84 % 0.01 in
12:27 69.6 °F 66.2 °F 29.7 in SSW 12.8 mph 14.1 mph 85 % 0.01 in
12:32 70.2 °F 64.4 °F 29.7 in WSW 12.8 mph 19.9 mph 81 % 0.01 in
12:37 70.2 °F 64.4 °F 29.7 in WSW 18.1 mph 19.9 mph 79 % 0.01 in
12:42 69.4 °F 60.8 °F 29.7 in West 8.1 mph 19.5 mph 76 % 0.01 in
12:47 70 °F 60.8 °F 29.7 in WSW 20.4 mph 21.9 mph 73 % 0.01 in
12:52 70.7 °F 60.8 °F 29.7 in WSW 14.3 mph 25.9 mph 71 % 0.01 in
12:57 70.9 °F 62.6 °F 29.7 in WSW 15.7 mph 25.9 mph 72 % 0.01 in
13:02 70.3 °F 60.8 °F 29.7 in SSW 11 mph 22.8 mph 72 % 0.01 in
13:07 71.1 °F 62.6 °F 29.7 in SW 11 mph 21.9 mph 72 % 0 in
13:12 71.2 °F 60.8 °F 29.8 in WSW 20.1 mph 20.1 mph 70 % 0 in
13:17 71.8 °F 60.8 °F 29.8 in WSW 8.1 mph 20.1 mph 67 % 0 in
13:22 71.6 °F 59 °F 29.8 in West 12.8 mph 20.1 mph 65 % 0 in
13:27 72 °F 60.8 °F 29.8 in WSW 15.4 mph 19.7 mph 66 % 0 in
13:32 72.3 °F 59 °F 29.8 in West 17.7 mph 22.4 mph 64 % 0 in
13:37 72.1 °F 59 °F 29.8 in WSW 15.4 mph 23.3 mph 62 % 0 in
13:42 71.8 °F 57.2 °F 29.8 in West 19 mph 26.6 mph 61 % 0 in
13:47 71.8 °F 59 °F 29.8 in WSW 14.1 mph 26.6 mph 63 % 0 in
13:52 72.5 °F 59 °F 29.8 in WSW 17.7 mph 19 mph 62 % 0 in
13:57 72.1 °F 57.2 °F 29.8 in WSW 21 mph 23 mph 58 % 0 in
14:02 72 °F 57.2 °F 29.8 in WSW 17.7 mph 23 mph 58 % 0 in
14:07 71.8 °F 57.2 °F 29.8 in West 20.6 mph 22.4 mph 60 % 0 in
14:12 72 °F 57.2 °F 29.8 in WSW 15.4 mph 21.5 mph 61 % 0 in
14:17 73 °F 59 °F 29.8 in WSW 19.5 mph 22.8 mph 61 % 0 in
14:22 73 °F 57.2 °F 29.8 in West 17.2 mph 24.4 mph 59 % 0 in
14:27 73.9 °F 59 °F 29.8 in West 12.3 mph 24.4 mph 58 % 0 in
14:32 73.8 °F 57.2 °F 29.8 in WSW 17.2 mph 22.1 mph 57 % 0 in
14:37 72.7 °F 55.4 °F 29.8 in WSW 15.4 mph 22.1 mph 56 % 0 in
14:43 73.4 °F 55.4 °F 29.8 in WSW 14.3 mph 23.5 mph 55 % 0 in
14:48 72.9 °F 55.4 °F 29.8 in WSW 13.2 mph 23.5 mph 55 % 0 in
14:53 73.8 °F 55.4 °F 29.8 in West 16.8 mph 19.7 mph 53 % 0 in
14:58 72.7 °F 55.4 °F 29.8 in West 12.5 mph 19.7 mph 54 % 0 in
15:08 73.9 °F 55.4 °F 29.8 in WSW 15.2 mph 23.9 mph 50 % 0 in
15:13 73.4 °F 53.6 °F 29.8 in West 10.7 mph 23.9 mph 49 % 0 in
15:23 73.9 °F 53.6 °F 29.8 in West 19.9 mph 23 mph 48 % 0 in
15:28 74.3 °F 55.4 °F 29.8 in WSW 17.9 mph 22.8 mph 49 % 0 in
15:33 74.1 °F 53.6 °F 29.8 in WSW 12.5 mph 19.7 mph 49 % 0 in
15:38 73.8 °F 53.6 °F 29.8 in WSW 10.1 mph 19.7 mph 48 % 0 in
15:43 73.4 °F 53.6 °F 29.8 in West 13.4 mph 19.7 mph 48 % 0 in
15:49 73 °F 53.6 °F 29.8 in West 14.5 mph 19.2 mph 49 % 0 in
15:54 74.1 °F 53.6 °F 29.8 in West 15.2 mph 19.9 mph 48 % 0 in
15:59 74.3 °F 53.6 °F 29.8 in WSW 11 mph 21 mph 47 % 0 in
16:04 74.7 °F 53.6 °F 29.8 in WSW 14.5 mph 21 mph 46 % 0 in
16:09 74.1 °F 53.6 °F 29.8 in WSW 11 mph 19.9 mph 47 % 0 in
16:14 73.4 °F 53.6 °F 29.8 in West 10.7 mph 17.7 mph 48 % 0 in
16:19 73 °F 51.8 °F 29.8 in WSW 8.7 mph 15.7 mph 48 % 0 in
16:24 72.9 °F 51.8 °F 29.8 in WSW 8.7 mph 18.6 mph 48 % 0 in
16:29 73 °F 51.8 °F 29.8 in WSW 10.1 mph 25.3 mph 46 % 0 in
16:34 73.4 °F 51.8 °F 29.8 in WSW 19.7 mph 25.3 mph 47 % 0 in
16:39 74.1 °F 51.8 °F 29.8 in West 19.5 mph 23 mph 46 % 0 in
16:44 74.3 °F 53.6 °F 29.8 in West 10.1 mph 23 mph 46 % 0 in
16:49 74.1 °F 51.8 °F 29.8 in SW 10.7 mph 22.8 mph 46 % 0 in
16:54 74.1 °F 51.8 °F 29.8 in WSW 16.1 mph 23.9 mph 45 % 0 in
16:59 74.1 °F 51.8 °F 29.8 in West 10.3 mph 23.9 mph 46 % 0 in
17:00 73.6 °F 51.8 °F 29.8 in WSW 8.5 mph 23.9 mph 46 % 0 in
17:05 74.1 °F 51.8 °F 29.8 in WSW 12.3 mph 22.6 mph 44 % 0 in
17:10 74.3 °F 50 °F 29.8 in West 15.4 mph 21.9 mph 43 % 0 in
17:15 74.5 °F 50 °F 29.8 in SSW 8.7 mph 20.1 mph 43 % 0 in
17:20 74.7 °F 50 °F 29.8 in WSW 15.4 mph 19.2 mph 42 % 0 in
17:25 74.3 °F 50 °F 29.8 in West 11 mph 20.6 mph 41 % 0 in
17:30 74.3 °F 50 °F 29.8 in West 14.8 mph 20.6 mph 41 % 0 in
17:35 74.3 °F 48.2 °F 29.8 in WSW 10.3 mph 19.2 mph 40 % 0 in
17:40 74.5 °F 50 °F 29.8 in SSW 8.7 mph 17.2 mph 41 % 0 in
17:45 74.8 °F 48.2 °F 29.8 in WSW 11.9 mph 17.9 mph 40 % 0 in
17:50 74.7 °F 48.2 °F 29.8 in West 7.6 mph 17.9 mph 40 % 0 in
17:54 74.3 °F 48.2 °F 29.8 in WSW 12.8 mph 19.7 mph 38 % 0 in
17:59 74.3 °F 48.2 °F 29.8 in WSW 14.1 mph 19.7 mph 39 % 0 in
18:04 73.8 °F 46.4 °F 29.8 in West 10.1 mph 20.1 mph 38 % 0 in
18:09 73.9 °F 48.2 °F 29.8 in West 11.9 mph 20.1 mph 39 % 0 in
18:14 73.9 °F 46.4 °F 29.8 in WSW 10.1 mph 16.3 mph 38 % 0 in
18:19 73.6 °F 46.4 °F 29.8 in WSW 10.5 mph 17 mph 38 % 0 in
18:24 73.6 °F 48.2 °F 29.8 in West 14.5 mph 17 mph 40 % 0 in
18:29 73.6 °F 48.2 °F 29.9 in West 11 mph 17.4 mph 40 % 0 in
18:34 73.4 °F 48.2 °F 29.9 in WSW 7.8 mph 17.4 mph 41 % 0 in
18:39 73.2 °F 48.2 °F 29.9 in West 12.5 mph 16.3 mph 42 % 0 in
18:44 72.9 °F 48.2 °F 29.8 in SW 10.7 mph 17.7 mph 42 % 0 in
18:49 72.9 °F 48.2 °F 29.8 in West 10.5 mph 17.7 mph 43 % 0 in
18:55 72.5 °F 48.2 °F 29.8 in West 10.3 mph 14.3 mph 43 % 0 in
19:00 72.5 °F 50 °F 29.9 in WSW 6 mph 15.4 mph 44 % 0 in
19:05 72.3 °F 50 °F 29.9 in West 10.1 mph 15.4 mph 44 % 0 in
19:10 72.1 °F 50 °F 29.9 in WSW 10.1 mph 15.2 mph 44 % 0 in
19:15 72.1 °F 48.2 °F 29.9 in West 5.6 mph 14.8 mph 43 % 0 in
19:20 72 °F 48.2 °F 29.9 in WSW 7.4 mph 15.2 mph 43 % 0 in
19:25 71.8 °F 48.2 °F 29.9 in West 7.6 mph 16.3 mph 43 % 0 in
19:31 71.8 °F 48.2 °F 29.9 in WSW 5.4 mph 16.3 mph 44 % 0 in
19:36 71.6 °F 48.2 °F 29.9 in WSW 8.1 mph 14.3 mph 44 % 0 in
19:41 71.2 °F 48.2 °F 29.9 in West 7.4 mph 14.3 mph 45 % 0 in
19:46 71.2 °F 50 °F 29.9 in West 9.2 mph 13 mph 46 % 0 in
19:51 71.2 °F 50 °F 29.9 in West 6 mph 11.2 mph 46 % 0 in
19:56 71.2 °F 50 °F 29.9 in West 4.9 mph 12.1 mph 46 % 0 in
20:01 71.1 °F 50 °F 29.9 in West 3.8 mph 12.1 mph 46 % 0 in
20:06 70.2 °F 48.2 °F 29.9 in West 3.8 mph 10.7 mph 46 % 0 in
20:11 69.4 °F 48.2 °F 29.9 in West 5.6 mph 10.7 mph 48 % 0 in
20:16 69.4 °F 48.2 °F 29.9 in WSW 6.5 mph 10.5 mph 48 % 0 in
20:21 68.9 °F 50 °F 29.9 in WSW 5.6 mph 10.5 mph 49 % 0 in
20:26 68.4 °F 50 °F 29.9 in WSW 8.5 mph 8.9 mph 51 % 0 in
20:27 68.2 °F 50 °F 29.9 in West 5.6 mph 8.9 mph 51 % 0 in
20:32 67.8 °F 50 °F 29.9 in West 4.3 mph 10.3 mph 52 % 0 in
20:37 67.5 °F 50 °F 29.9 in West 3.1 mph 10.3 mph 53 % 0 in
20:43 67.1 °F 50 °F 29.9 in West 3.4 mph 7.6 mph 55 % 0 in
20:48 66.9 °F 50 °F 29.9 in West 5.8 mph 8.5 mph 55 % 0 in
20:49 66.7 °F 50 °F 29.9 in West 3.6 mph 8.5 mph 55 % 0 in
20:54 66.6 °F 50 °F 29.9 in West 5.6 mph 7.6 mph 56 % 0 in
20:59 66.4 °F 50 °F 29.9 in WSW 3.1 mph 8.5 mph 56 % 0 in
21:04 65.8 °F 50 °F 29.9 in WSW 3.6 mph 8.5 mph 57 % 0 in
21:09 65.5 °F 50 °F 29.9 in Calm   4.9 mph 58 % 0 in
21:14 65.1 °F 50 °F 29.9 in West 3.4 mph 4.9 mph 59 % 0 in
21:19 64.8 °F 50 °F 29.9 in West 0.9 mph 4 mph 59 % 0 in
21:25 64.4 °F 50 °F 29.9 in Calm   4.9 mph 60 % 0 in
21:30 64.2 °F 51.8 °F 29.8 in Calm   4.9 mph 62 % 0 in
21:35 63.7 °F 50 °F 29.8 in West 4.3 mph 171.9 mph 62 % 0 in
21:37 63.7 °F 51.8 °F 29.8 in West 5.6 mph 171.9 mph 63 % 0 in
21:42 63.5 °F 51.8 °F 29.9 in Calm   5.8 mph 64 % 0 in
21:47 63.1 °F 51.8 °F 29.9 in West 3.8 mph 5.4 mph 65 % 0 in
21:52 63 °F 51.8 °F 29.9 in Calm   5.4 mph 65 % 0 in
21:57 62.6 °F 51.8 °F 29.9 in West 19.9 mph 19.9 mph 66 % 0 in
22:02 62.1 °F 51.8 °F 29.9 in Calm   19.9 mph 67 % 0 in
22:07 61.9 °F 51.8 °F 29.9 in Calm   1.3 mph 67 % 0 in
22:10 61.7 °F 51.8 °F 29.9 in Calm     68 % 0 in
22:15 61.3 °F 51.8 °F 29.9 in Calm     69 % 0 in
22:20 61 °F 50 °F 29.9 in Calm     69 % 0 in
22:25 60.8 °F 51.8 °F 29.8 in Calm   2.2 mph 70 % 0 in
22:31 60.6 °F 51.8 °F 29.8 in Calm   2.2 mph 71 % 0 in
22:36 60.6 °F 51.8 °F 29.8 in Calm     72 % 0 in
22:41 60.4 °F 51.8 °F 29.9 in Calm     72 % 0 in
22:46 60.3 °F 51.8 °F 29.9 in Calm     73 % 0 in
22:51 60.1 °F 51.8 °F 29.9 in Calm     73 % 0 in
22:56 60.1 °F 51.8 °F 29.9 in Calm     73 % 0 in
23:01 59.7 °F 51.8 °F 29.9 in Calm     73 % 0 in
23:06 59.5 °F 51.8 °F 29.9 in Calm     74 % 0 in
23:11 59.2 °F 51.8 °F 29.9 in Calm     74 % 0 in
23:16 58.8 °F 51.8 °F 29.9 in Calm     75 % 0 in
23:21 58.5 °F 51.8 °F 29.9 in Calm     76 % 0 in
23:26 58.1 °F 51.8 °F 29.9 in Calm     77 % 0 in
23:31 58.1 °F 51.8 °F 29.9 in Calm     78 % 0 in
23:36 58.1 °F 51.8 °F 29.9 in Calm     79 % 0 in
23:41 58.1 °F 53.6 °F 29.8 in Calm     80 % 0 in
23:46 58.3 °F 53.6 °F 29.8 in Calm     80 % 0 in
23:51 58.3 °F 53.6 °F 29.8 in Calm     81 % 0 in
23:56 58.5 °F 53.6 °F 29.9 in Calm     81 % 0 in
Le Gheer Warneton
Courtoisie de Weather Underground - 2.25 mb

Mise a jour : 17-12-17 08:47:12
Généré par Cumulus 1.9.4 (1099)